Location: Plymouth
(43.7570°N, 71.6890°W)
Time: 16:42:01
(UTC-04:00)

Amateur Radio Satellites - All Passes

Search period start: 23 May 2017 16:12
Search period end: 24 May 2017 16:12
Location: Plymouth, 43.7570°N, 71.6890°W

Satellite Date Start Highest point End Downlink Frequencies (MHz)
Time Altitude Azimuth
CUBESAT XI-V 23 May 16:31:57 16:35:30 21° 92° (E) 16:39:01 437.345
BEESAT 3 23 May 16:40:56 16:42:08 11° 252° (WSW) 16:43:21 437.485
ITUPSAT 1 23 May 16:42:27 16:46:54 38° 292° (WNW) 16:51:19 437.325
XW-2C 23 May 16:51:17 16:52:46 12° 63° (ENE) 16:54:18 145.795 - 145.815
XW-2F 23 May 16:53:03 16:54:32 12° 63° (ENE) 16:56:01 145.980 - 146.000
HO-68 23 May 17:02:24 17:05:00 12° 46° (NE) 17:07:35 435.675
NUDT-PHONESAT 23 May 17:03:09 17:04:43 12° 63° (ENE) 17:06:17 437.300
CUTE-I 23 May 17:03:48 17:07:54 23° 62° (ENE) 17:11:59 437.470
KAITUO 1B 23 May 17:06:11 17:08:10 14° 64° (ENE) 17:10:09 145.475/437.950
NO-84 23 May 17:11:53 17:15:28 55° 223° (SW) 17:18:43 435.350 FM
KKS-1 23 May 17:14:23 17:18:40 46° 100° (E) 17:22:55 437.445
BEESAT 23 May 17:19:24 17:22:37 18° 298° (WNW) 17:25:50 436.000
AO-7 23 May 17:20:20 17:25:34 18° 271° (W) 17:30:50 .
LilacSat-2 23 May 17:23:15 17:26:32 28° 69° (ENE) 17:29:52 437.200
DOVE 4 23 May 17:32:22 17:37:03 68° 75° (ENE) 17:41:28 437.250
MOZHAYETS 4 23 May 17:32:57 17:36:22 21° 296° (WNW) 17:39:46
STARS 23 May 17:55:19 17:59:38 54° 101° (E) 18:03:55 437.465
XW-2D 23 May 18:01:20 18:05:07 79° 76° (ENE) 18:08:58 145.860 - 145.880
CUBESAT XI-V 23 May 18:08:39 18:13:03 42° 290° (WNW) 18:17:24 437.345
XW-2B 23 May 18:09:11 18:12:58 86° 260° (W) 18:16:50 145.730 - 145.750
XW-2C 23 May 18:22:45 18:26:29 57° 260° (W) 18:30:16 145.795 - 145.815
XW-2F 23 May 18:24:27 18:28:11 57° 260° (W) 18:31:57 145.980 - 146.000
XW-2A 23 May 18:27:56 18:30:02 16° 66° (ENE) 18:32:08 145.665 - 145.685
NUDT-PHONESAT 23 May 18:34:32 18:38:10 52° 260° (W) 18:41:50 437.300
KAITUO 1B 23 May 18:38:08 18:41:46 47° 261° (W) 18:45:27 145.475/437.950
SEEDS 23 May 18:39:04 18:42:10 20° 66° (ENE) 18:45:18 437.485
CUTE-I 23 May 18:42:26 18:47:35 52° 260° (W) 18:52:47 437.470
HO-68 23 May 18:44:14 18:51:11 56° 67° (ENE) 18:58:10 435.675
KKS-1 23 May 18:51:46 18:54:53 19° 296° (WNW) 18:58:00 437.445
LilacSat-2 23 May 18:57:49 19:00:49 22° 266° (W) 19:03:51 437.200
DOVE 4 23 May 19:13:02 19:15:06 13° 270° (W) 19:17:08 437.250
AO-73 23 May 19:13:26 19:14:45 11° 60° (ENE) 19:16:04 145.935
CUTE 1.7 + AOD 2 23 May 19:17:17 19:21:33 77° 75° (ENE) 19:25:52 437.475
CUBEBUG 2 23 May 19:19:43 19:23:33 38° 70° (ENE) 19:27:28 437.445
ZACube-1 23 May 19:23:52 19:26:27 16° 63° (ENE) 19:29:05 437.345
STARS 23 May 19:32:49 19:35:32 16° 298° (WNW) 19:38:16 437.465
UWE-3 23 May 19:37:22 19:41:11 36° 70° (ENE) 19:45:05 435.000/436.395/437.385
STRAND 1 23 May 19:44:23 19:49:10 38° 97° (E) 19:53:55 437.568
PCSat 23 May 19:47:14 19:52:23 46° 113° (ESE) 19:57:34 145.827
AAUSAT CUBESAT 2 23 May 19:48:05 19:52:08 51° 73° (ENE) 19:56:13 437.432
XW-2A 23 May 19:59:34 20:02:33 30° 263° (W) 20:05:34 145.665 - 145.685
SEEDS 23 May 20:13:37 20:17:35 39° 262° (W) 20:21:37 437.485
Oscar 11 23 May 20:23:42 20:27:53 49° 72° (ENE) 20:32:06 .
HO-68 23 May 20:33:03 20:39:13 30° 265° (W) 20:45:26 435.675
DELFI C3 23 May 20:39:08 20:42:04 20° 66° (ENE) 20:45:00 145.870
AO-73 23 May 20:46:08 20:50:19 77° 256° (WSW) 20:54:37 145.935
CUBEBUG 2 23 May 20:57:24 21:00:21 19° 268° (W) 21:03:19 437.445
ZACube-1 23 May 20:58:15 21:02:19 50° 261° (W) 21:06:30 437.345
UWE-3 23 May 21:14:41 21:17:46 20° 267° (W) 21:20:56 435.000/436.395/437.385
M-CUBED/EXP-1 PRIME 23 May 21:16:37 21:19:54 49° 105° (ESE) 21:23:04 437.505
ISS 23 May 21:21:06 21:23:48 23° 136° (SE) 21:26:30 437.550
Tancredo 1 23 May 21:21:51 21:24:41 34° 140° (SE) 21:27:31 437.200
STRAND 1 23 May 21:23:50 21:28:12 29° 295° (WNW) 21:32:35 437.568
AAUSAT CUBESAT 2 23 May 21:25:34 21:27:53 14° 270° (W) 21:30:12 437.432
PCSat 23 May 21:31:11 21:35:57 31° 313° (NW) 21:40:45 145.827
EO-88 23 May 21:31:36 21:35:10 53° 74° (ENE) 21:38:46 145.990 - 145.960
FO-29 23 May 21:57:50 22:03:14 29° 95° (E) 22:09:09 435.910
Oscar 11 23 May 22:01:36 22:04:17 16° 269° (W) 22:07:00 .
DELFI C3 23 May 22:12:57 22:16:37 34° 263° (W) 22:20:18 145.870
TIGRISAT 23 May 22:22:56 22:27:08 35° 97° (E) 22:31:24 435.000
LO-87 23 May 22:26:18 22:29:28 31° 71° (ENE) 22:32:38 145.935 - 145.965
PRISM 23 May 22:26:31 22:30:29 49° 100° (E) 22:34:24 437.425
M-CUBED/EXP-1 PRIME 23 May 22:53:03 22:53:56 11° 304° (WNW) 22:54:49 437.505
UNISAT 6 23 May 22:53:25 22:58:00 79° 104° (ESE) 23:02:39 437.425
VELOX 1 23 May 22:56:28 22:58:37 13° 61° (ENE) 23:00:46 145.980
ISS 23 May 22:56:53 23:00:06 51° 334° (NNW) 23:03:21 437.550
Tancredo 1 23 May 22:57:34 23:00:26 35° 337° (NNW) 23:03:19 437.200
EO-88 23 May 23:08:21 23:09:11 11° 270° (W) 23:10:01 145.990 - 145.960
SPROUT 23 May 23:14:39 23:17:36 19° 64° (ENE) 23:20:34 437.525
ESTCUBE 1 23 May 23:19:57 23:24:29 80° 76° (ENE) 23:29:03 437.505/2401.250
QB50P2 23 May 23:25:56 23:27:57 13° 90° (E) 23:29:58 145.880/145.840
DUCHIFAT 1 23 May 23:30:02 23:30:31 10° 89° (E) 23:31:00 145.980
SO-50 23 May 23:34:21 23:38:57 84° 123° (ESE) 23:43:31 436.795
DX 1 23 May 23:42:22 23:44:48 15° 62° (ENE) 23:47:15 434.975-435.025
FO-29 23 May 23:42:27 23:48:28 53° 289° (WNW) 23:55:12 435.910
UKube-1 23 May 23:43:22 23:44:00 10° 58° (ENE) 23:44:39 .
AIST 2D 23 May 23:58:01 00:01:31 54° 99° (E) 00:05:01 435.315
TIGRISAT 23 May 23:59:55 00:03:39 25° 293° (WNW) 00:07:26 435.000
LO-87 24 May 00:00:38 00:02:59 17° 267° (W) 00:05:20 145.935 - 145.965
EO-79 24 May 00:02:53 00:06:38 30° 96° (E) 00:10:23 145.935-145.965
PRISM 24 May 00:02:57 00:05:21 15° 297° (WNW) 00:07:45 437.425
50 SAT 24 May 00:04:18 00:07:19 28° 70° (ENE) 00:10:20 437.505
VELOX 1 24 May 00:30:06 00:34:31 70° 258° (WSW) 00:38:56 145.980
UNISAT 6 24 May 00:32:07 00:34:06 13° 299° (WNW) 00:36:05 437.425
ISS 24 May 00:34:32 00:37:08 21° 353° (N) 00:39:45 437.550
Tancredo 1 24 May 00:34:33 00:36:49 18° 357° (N) 00:39:05 437.200
SPROUT 24 May 00:49:11 00:53:12 42° 262° (W) 00:57:15 437.525
NANOSAT C BR1 24 May 00:49:55 00:54:11 90° 84° (E) 00:58:26 145.865
POLYITAN 1 24 May 00:51:21 00:55:38 80° 284° (WNW) 00:59:55 437.675
QB50P2 24 May 00:59:54 01:04:06 59° 287° (WNW) 01:08:18 145.880/145.840
ESTCUBE 1 24 May 01:00:50 01:01:51 11° 272° (W) 01:02:50 437.505/2401.250
DUCHIFAT 1 24 May 01:02:27 01:06:41 74° 285° (WNW) 01:10:54 145.980
Oscar 19 24 May 01:11:54 01:15:18 17° 91° (E) 01:18:39 437.125/150
UKube-1 24 May 01:15:01 01:19:20 89° 244° (WSW) 01:23:40 .
BEESAT 24 May 01:15:22 01:15:45 10° 56° (NE) 01:16:09 436.000
DX 1 24 May 01:16:12 01:20:30 60° 259° (W) 01:24:50 434.975-435.025
SO-50 24 May 01:16:56 01:20:00 17° 323° (NW) 01:23:03 436.795
YUBILEINY 24 May 01:19:59 01:28:25 57° 91° (E) 01:36:56 435.215
RS-15 24 May 01:32:12 01:42:13 32° 103° (ESE) 01:52:24 29.354- 29.394
AIST 2D 24 May 01:33:16 01:34:16 11° 296° (WNW) 01:35:15 435.315
BUGSAT 1 24 May 01:33:30 01:37:38 77° 104° (ESE) 01:41:46 437.445
50 SAT 24 May 01:37:51 01:40:13 17° 266° (W) 01:42:37 437.505
EO-79 24 May 01:38:46 01:42:17 26° 293° (WNW) 01:45:48 145.935-145.965
Gurwin Techsat 1B 24 May 02:02:39 02:07:22 31° 96° (E) 02:12:03 435.225
Tancredo 1 24 May 02:10:36 02:13:17 27° 17° (NNE) 02:15:58 437.200
ISS 24 May 02:11:35 02:14:22 25° 13° (NNE) 02:17:10 437.550
ITUPSAT 1 24 May 02:12:48 02:17:05 34° 68° (ENE) 02:21:24 437.325
BEESAT 24 May 02:47:56 02:52:40 77° 74° (ENE) 02:57:28 436.000
Oscar 19 24 May 02:49:55 02:55:02 61° 288° (WNW) 03:00:05 437.125/150
PCSat 24 May 02:51:57 02:54:08 12° 31° (NNE) 02:56:17 145.827
MOZHAYETS 4 24 May 02:57:51 03:02:18 51° 72° (ENE) 03:06:47
BUGSAT 1 24 May 03:11:17 03:12:23 11° 299° (WNW) 03:13:30 437.445
YUBILEINY 24 May 03:17:57 03:25:39 34° 292° (WNW) 03:33:27 435.215
AO-7 24 May 03:24:03 03:31:08 30° 95° (E) 03:38:10 .
CUBESAT XI-V 24 May 03:36:18 03:40:08 25° 66° (ENE) 03:43:58 437.345
RS-15 24 May 03:41:19 03:53:31 80° 306° (NW) 04:06:00 29.354- 29.394
Gurwin Techsat 1B 24 May 03:42:29 03:47:19 36° 293° (WNW) 03:52:07 435.225
ITAMSAT 1 24 May 03:44:44 03:49:36 39° 98° (E) 03:54:27 435.822/435.867
Tancredo 1 24 May 03:46:12 03:49:14 60° 216° (SW) 03:52:15 437.200
ISS 24 May 03:47:55 03:51:13 89° 48° (NE) 03:54:29 437.550
ITUPSAT 1 24 May 03:50:53 03:54:56 27° 265° (W) 03:59:01 437.325
KKS-1 24 May 04:13:23 04:17:39 50° 71° (ENE) 04:21:57 437.445
O/OREOS (USA 219) 24 May 04:24:30 04:28:53 46° 108° (ESE) 04:33:18 437.305
BEESAT 24 May 04:29:09 04:31:00 12° 271° (W) 04:32:51 436.000
PCSat 24 May 04:33:34 04:38:52 50° 53° (NE) 04:44:08 145.827
MOZHAYETS 4 24 May 04:36:42 04:39:45 17° 269° (W) 04:42:48
STARS 24 May 04:52:50 04:57:06 56° 73° (ENE) 05:01:23 437.465
AO-85 24 May 05:12:53 05:16:50 42° 119° (ESE) 05:20:38 145.980
CUBESAT XI-V 24 May 05:12:56 05:17:19 37° 263° (W) 05:21:42 437.345
AO-7 24 May 05:16:10 05:24:25 66° 294° (WNW) 05:32:40 .
ITAMSAT 1 24 May 05:24:29 05:28:55 29° 295° (WNW) 05:33:21 435.822/435.867
ISS 24 May 05:25:50 05:27:14 12° 229° (SW) 05:28:37 437.550
DOVE 4 24 May 05:31:04 05:33:16 14° 91° (E) 05:35:29 437.250
KKS-1 24 May 05:51:40 05:54:30 16° 268° (W) 05:57:19 437.445
XW-2C 24 May 05:55:20 05:57:19 14° 91° (E) 05:59:17 145.795 - 145.815
XW-2F 24 May 05:56:40 05:58:36 13° 91° (E) 06:00:29 145.980 - 146.000
RS-15 24 May 05:57:23 06:08:17 35° 335° (NNW) 06:19:16 29.354- 29.394
BEESAT 2 24 May 06:03:37 06:06:09 17° 111° (ESE) 06:08:43 435.950
NUDT-PHONESAT 24 May 06:04:59 06:06:50 13° 91° (E) 06:08:42 437.300
O/OREOS (USA 219) 24 May 06:04:59 06:08:32 22° 306° (NW) 06:12:05 437.305
KAITUO 1B 24 May 06:09:00 06:11:16 15° 92° (E) 06:13:32 145.475/437.950
PCSat 24 May 06:17:33 06:21:57 25° 252° (WSW) 06:26:19 145.827
SO-50 24 May 06:24:51 06:27:58 18° 38° (NE) 06:31:05 436.795
LilacSat-2 24 May 06:28:48 06:32:24 34° 97° (E) 06:35:57 437.200
BEESAT 3 24 May 06:28:51 06:32:48 83° 123° (ESE) 06:36:49 437.485
STARS 24 May 06:31:27 06:33:48 14° 269° (W) 06:36:08 437.465
M-CUBED/EXP-1 PRIME 24 May 06:32:37 06:33:07 10° 56° (NE) 06:33:37 437.505
AO-85 24 May 06:54:08 06:57:22 22° 316° (NW) 07:00:32 145.980
CUTE-I 24 May 06:57:49 07:03:05 57° 101° (E) 07:08:20 437.470
STRAND 1 24 May 07:01:24 07:06:24 61° 72° (ENE) 07:11:27 437.568
CUTE 1.7 + AOD 2 24 May 07:02:45 07:04:30 12° 89° (E) 07:06:15 437.475
XW-2D 24 May 07:06:32 07:10:25 83° 284° (WNW) 07:14:15 145.860 - 145.880
DOVE 4 24 May 07:07:16 07:11:17 50° 287° (WNW) 07:15:21 437.250
AO-7 24 May 07:10:45 07:15:40 17° 315° (NW) 07:20:35 .
XW-2B 24 May 07:14:25 07:18:17 69° 284° (WNW) 07:22:05 145.730 - 145.750
XW-2A 24 May 07:20:47 07:22:37 14° 92° (E) 07:24:28 145.665 - 145.685
XW-2C 24 May 07:28:03 07:31:46 46° 287° (WNW) 07:35:27 145.795 - 145.815
XW-2F 24 May 07:29:16 07:32:59 46° 287° (WNW) 07:36:39 145.980 - 146.000
NUDT-PHONESAT 24 May 07:37:22 07:41:00 45° 287° (WNW) 07:44:36 437.300
BEESAT 2 24 May 07:39:38 07:43:31 49° 308° (NW) 07:47:28 435.950
KAITUO 1B 24 May 07:41:53 07:45:28 40° 288° (WNW) 07:49:01 145.475/437.950
SEEDS 24 May 07:56:00 07:59:43 30° 95° (E) 08:03:24 437.485
HO-68 24 May 07:57:50 08:04:50 51° 100° (E) 08:11:48 435.675
M-CUBED/EXP-1 PRIME 24 May 08:02:42 08:07:01 89° 81° (E) 08:11:04 437.505
LilacSat-2 24 May 08:03:40 08:06:26 19° 294° (WNW) 08:09:11 437.200
SO-50 24 May 08:04:27 08:08:58 78° 237° (WSW) 08:13:29 436.795
BEESAT 3 24 May 08:08:39 08:10:55 15° 322° (NW) 08:13:14 437.485
RS-15 24 May 08:15:34 08:25:47 28° 10° (N) 08:35:46 29.354- 29.394
FO-29 24 May 08:16:24 08:17:49 11° 54° (NE) 08:19:13 435.910
NO-84 24 May 08:30:38 08:33:00 14° 124° (SE) 08:35:22 435.350 FM
AO-73 24 May 08:33:13 08:36:31 20° 92° (E) 08:39:49 145.935
CUTE 1.7 + AOD 2 24 May 08:36:31 08:40:45 62° 286° (WNW) 08:44:57 437.475
CUTE-I 24 May 08:38:46 08:42:43 21° 298° (WNW) 08:46:39 437.470
STRAND 1 24 May 08:42:45 08:46:00 17° 269° (W) 08:49:17 437.568
CUBEBUG 2 24 May 08:44:37 08:49:10 78° 103° (ESE) 08:53:50 437.445
ZACube-1 24 May 08:45:00 08:48:56 28° 95° (E) 08:52:52 437.345
XW-2A 24 May 08:52:21 08:55:31 35° 288° (WNW) 08:58:41 145.665 - 145.685
UWE-3 24 May 09:00:58 09:05:31 71° 102° (ESE) 09:10:08 435.000/436.395/437.385
AAUSAT CUBESAT 2 24 May 09:03:58 09:08:08 82° 103° (ESE) 09:12:15 437.432
PRISM 24 May 09:16:39 09:20:34 42° 71° (ENE) 09:24:28 437.425
TIGRISAT 24 May 09:22:59 09:26:49 34° 69° (ENE) 09:30:44 435.000
SEEDS 24 May 09:31:49 09:35:18 25° 293° (WNW) 09:38:45 437.485
Oscar 11 24 May 09:45:18 09:49:42 86° 108° (ESE) 09:54:02 .
HO-68 24 May 09:45:57 09:52:18 35° 299° (WNW) 09:58:37 435.675
DELFI C3 24 May 09:48:39 09:51:56 25° 95° (E) 09:55:11 145.870
UNISAT 6 24 May 09:53:22 09:57:37 79° 76° (ENE) 10:01:58 437.425
FO-29 24 May 09:56:48 10:01:58 80° 74° (ENE) 10:07:16 435.910
NO-84 24 May 10:05:45 10:10:08 86° 140° (SE) 10:14:20 435.350 FM
AO-73 24 May 10:08:37 10:12:55 44° 289° (WNW) 10:17:15 145.935
QB50P2 24 May 10:20:26 10:22:12 12° 61° (ENE) 10:24:00 145.880/145.840
ZACube-1 24 May 10:21:12 10:25:10 31° 291° (WNW) 10:29:10 437.345
CUBEBUG 2 24 May 10:23:11 10:25:12 13° 299° (WNW) 10:27:15 437.445
RS-15 24 May 10:30:05 10:42:03 53° 42° (NE) 10:53:29 29.354- 29.394
EO-88 24 May 10:32:31 10:36:10 59° 100° (E) 10:39:48 145.990 - 145.960
AIST 2D 24 May 10:33:51 10:36:43 24° 69° (ENE) 10:39:36 435.315
UWE-3 24 May 10:39:05 10:41:26 14° 298° (WNW) 10:43:47 435.000/436.395/437.385
AAUSAT CUBESAT 2 24 May 10:42:20 10:42:55 10° 300° (WNW) 10:43:31 437.432
PRISM 24 May 10:53:17 10:56:01 17° 267° (W) 10:58:46 437.425
EO-79 24 May 10:56:33 11:00:04 26° 67° (ENE) 11:03:35 145.935-145.965
TIGRISAT 24 May 11:00:15 11:03:35 22° 267° (W) 11:06:59 435.000
ESTCUBE 1 24 May 11:12:25 11:15:03 15° 91° (E) 11:17:41 437.505/2401.250
DELFI C3 24 May 11:23:22 11:26:40 26° 292° (WNW) 11:29:56 145.870
Oscar 11 24 May 11:24:09 11:25:07 11° 300° (WNW) 11:26:06 .
LO-87 24 May 11:24:58 11:28:11 31° 97° (E) 11:31:23 145.935 - 145.965
YUBILEINY 24 May 11:28:37 11:36:13 31° 66° (ENE) 11:43:46 435.215
NANOSAT C BR1 24 May 11:42:48 11:46:57 77° 74° (ENE) 11:51:09 145.865
NO-84 24 May 11:44:33 11:48:09 25° 338° (NNW) 11:51:35 435.350 FM
POLYITAN 1 24 May 11:44:43 11:48:55 89° 68° (ENE) 11:53:08 437.675
FO-29 24 May 11:46:04 11:47:52 12° 273° (W) 11:49:41 435.910
QB50P2 24 May 11:53:16 11:57:26 68° 258° (WSW) 12:01:39 145.880/145.840
DUCHIFAT 1 24 May 11:55:00 11:59:09 87° 256° (WSW) 12:03:22 145.980
AIST 2D 24 May 12:07:08 12:09:53 21° 266° (W) 12:12:39 435.315
EO-88 24 May 12:08:17 12:09:21 11° 297° (WNW) 12:10:25 145.990 - 145.960
VELOX 1 24 May 12:19:29 12:22:42 20° 93° (E) 12:25:52 145.980
BUGSAT 1 24 May 12:24:09 12:28:05 60° 74° (ENE) 12:32:03 437.445
Oscar 19 24 May 12:29:33 12:34:02 30° 65° (ENE) 12:38:31 437.125/150
EO-79 24 May 12:32:08 12:35:44 28° 264° (W) 12:39:23 145.935-145.965
SPROUT 24 May 12:33:28 12:37:09 28° 96° (E) 12:40:50 437.525
AO-7 24 May 12:38:32 12:41:20 12° 38° (NE) 12:44:08 .
RS-15 24 May 12:43:04 12:54:48 57° 247° (WSW) 13:05:57 29.354- 29.394
ESTCUBE 1 24 May 12:47:47 12:52:13 56° 287° (WNW) 12:56:36 437.505/2401.250
O/OREOS (USA 219) 24 May 12:55:08 12:57:40 15° 49° (NE) 13:00:13 437.305
50 SAT 24 May 12:58:41 13:01:28 23° 96° (E) 13:04:15 437.505
LO-87 24 May 12:59:01 13:01:24 17° 293° (WNW) 13:03:45 145.935 - 145.965
UKube-1 24 May 13:02:17 13:04:24 13° 91° (E) 13:06:30 .
DX 1 24 May 13:03:38 13:06:53 20° 94° (E) 13:10:06 434.975-435.025
BEESAT 3 24 May 13:08:31 13:10:07 12° 35° (NE) 13:11:43 437.485
NO-84 24 May 13:24:15 13:26:50 16° 359° (N) 13:29:18 435.350 FM
Gurwin Techsat 1B 24 May 13:24:49 13:30:00 57° 71° (ENE) 13:35:13 435.225
YUBILEINY 24 May 13:24:57 13:33:38 64° 268° (W) 13:42:18 435.215
ITAMSAT 1 24 May 13:30:01 13:30:30 10° 54° (NE) 13:30:59 435.822/435.867
AO-85 24 May 13:42:14 13:46:10 53° 52° (NE) 13:50:17 145.980
VELOX 1 24 May 13:55:11 13:59:18 41° 290° (WNW) 14:03:24 145.980
BUGSAT 1 24 May 14:02:38 14:03:51 11° 270° (W) 14:05:04 437.445
Oscar 19 24 May 14:08:25 14:13:13 37° 263° (W) 14:18:02 437.125/150
SPROUT 24 May 14:09:21 14:13:00 28° 292° (WNW) 14:16:37 437.525
BEESAT 2 24 May 14:18:55 14:21:55 19° 41° (NE) 14:24:54 435.950
AO-7 24 May 14:24:17 14:32:02 47° 61° (ENE) 14:39:51 .
50 SAT 24 May 14:31:39 14:34:14 20° 292° (WNW) 14:36:48 437.505
O/OREOS (USA 219) 24 May 14:33:07 14:37:39 74° 248° (WSW) 14:42:06 437.305
UKube-1 24 May 14:36:32 14:40:47 58° 288° (WNW) 14:45:00 .
DX 1 24 May 14:39:09 14:43:11 38° 290° (WNW) 14:47:12 434.975-435.025
BEESAT 3 24 May 14:44:24 14:48:27 72° 56° (NE) 14:52:24 437.485
BEESAT 24 May 14:47:43 14:50:53 17° 92° (E) 14:54:04 436.000
MOZHAYETS 4 24 May 14:54:03 14:55:11 11° 88° (E) 14:56:19
RS-15 24 May 15:01:32 15:04:12 11° 269° (W) 15:06:51 29.354- 29.394
NO-84 24 May 15:02:17 15:05:31 24° 21° (NNE) 15:08:32 435.350 FM
ITAMSAT 1 24 May 15:03:52 15:08:59 68° 73° (ENE) 15:14:09 435.822/435.867
Gurwin Techsat 1B 24 May 15:06:31 15:10:18 20° 268° (W) 15:14:07 435.225
AO-85 24 May 15:23:41 15:26:12 16° 248° (WSW) 15:28:47 145.980
YUBILEINY 24 May 15:25:44 15:28:32 12° 289° (WNW) 15:31:21 435.215
ITUPSAT 1 24 May 15:48:55 15:53:44 68° 102° (ESE) 15:58:32 437.325
BEESAT 2 24 May 15:56:00 15:59:59 55° 240° (WSW) 16:03:55 435.950
